QPF
0.02 0.03 0.05 0.05 0.05 0.05 0.06 0.05 0.07 0.07 0.08 0.07 0.05 0.04 0.04 0.05 0.04 0.04 0.05 0.04 0.03 0.03 0.05 0.07 0.05 0.04 0.04 0.05 0.06 0.07 0.08 0.08 0.09 0.07 0.07 0.06 0.06 0.05
0.02 0.02 0.03 0.04 0.03 0.03 0.04 0.04 0.05 0.06 0.07 0.07 0.05 0.04 0.04 0.03 0.02 0.02 0.04 0.05 0.04 0.03 0.03 0.05 0.06 0.05 0.03 0.03 0.03 0.03 0.05 0.06 0.07 0.07 0.06 0.05 0.05 0.05
0.01 0.02 0.03 0.03 0.03 0.01 0.02 0.03 0.04 0.04 0.05 0.06 0.05 0.03 0.03 0.03 0.03 0.03 0.03 0.04 0.03 0.03 0.03 0.03 0.04 0.04 0.04 0.03 0.02 0.02 0.02 0.03 0.04 0.05 0.06 0.05 0.04 0.04
0.02 0.01 0.01 0.01 0.02 0.02 0.01 0.01 0.02 0.03 0.04 0.04 0.05 0.03 0.02 0.02 0.03 0.03 0.02 0.03 0.03 0.02 0.02 0.02 0.02 0.03 0.03 0.04 0.03 0.03 0.02 0.02 0.02 0.03 0.04 0.05 0.05 0.04
0.02 0.01 0.01 0.01 0.01 0.02 0.02 0.02 0.02 0.02 0.03 0.04 0.04 0.04 0.03 0.02 0.02 0.02 0.03 0.03 0.03 0.02 0.02 0.01 0.02 0.02 0.03 0.03 0.03 0.03 0.02 0.02 0.02 0.02 0.03 0.05 0.06 0.05
0.01 0.01 0.02 0.02 0.01 0.01 0.01 0.02 0.02 0.03 0.04 0.03 0.03 0.03 0.02 0.03 0.03 0.03 0.03 0.04 0.04 0.03 0.02 0.01 0.01 0.01 0.02 0.02 0.03 0.03 0.03 0.03 0.02 0.02 0.03 0.03 0.04 0.04
0.02 0.01 0.01 0.01 0.00 0.00 0.00 0.01 0.02 0.03 0.04 0.05 0.04 0.04 0.02 0.02 0.03 0.04 0.04 0.05 0.05 0.05 0.04 0.02 0.01 0.01 0.02 0.02 0.02 0.02 0.02 0.02 0.03 0.03 0.03 0.03 0.04 0.04
0.02 0.01 0.00 0.00 0.00 0.00 0.00 0.00 0.01 0.01 0.02 0.03 0.03 0.03 0.03 0.03 0.04 0.04 0.06 0.06 0.05 0.06 0.06 0.05 0.04 0.03 0.02 0.02 0.02 0.02 0.02 0.02 0.02 0.03 0.03 0.04 0.04 0.04
0.01 0.00 0.00 0.00 0.00 0.01 0.01 0.00 0.01 0.01 0.01 0.01 0.02 0.02 0.02 0.02 0.03 0.03 0.05 0.06 0.07 0.07 0.06 0.04 0.05 0.04 0.03 0.02 0.02 0.02 0.01 0.01 0.01 0.02 0.02 0.03 0.04 0.05
0.00 0.00 0.00 0.01 0.01 0.01 0.01 0.01 0.01 0.01 0.01 0.01 0.01 0.02 0.03 0.02 0.02 0.02 0.02 0.04 0.05 0.08 0.08 0.04 0.03 0.03 0.03 0.04 0.03 0.02 0.02 0.01 0.01 0.01 0.01 0.01 0.03 0.04
0.01 0.01 0.01 0.01 0.00 0.00 0.00 0.01 0.01 0.02 0.01 0.01 0.00 0.00 0.01 0.01 0.01 0.01 0.02 0.03 0.03 0.05 0.08 0.07 0.04 0.04 0.04 0.04 0.03 0.03 0.03 0.03 0.02 0.02 0.01 0.01 0.02 0.03
0.01 0.01 0.00 0.00 0.00 0.00 0.00 0.01 0.02 0.02 0.01 0.01 0.01 0.01 0.01 0.02 0.01 0.02 0.03 0.05 0.05 0.05 0.07 0.08 0.06 0.08 0.06 0.04 0.05 0.05 0.05 0.04 0.03 0.02 0.02 0.02 0.02 0.03
0.01 0.01 0.00 0.00 0.00 0.00 0.00 0.01 0.02 0.02 0.02 0.01 0.01 0.02 0.02 0.03 0.03 0.04 0.05 0.06 0.06 0.05 0.07 0.08 0.06 0.08 0.08 0.06 0.06 0.06 0.06 0.06 0.05 0.04 0.03 0.03 0.03 0.03
0.01 0.01 0.00 0.00 0.00 0.00 0.00 0.00 0.00 0.01 0.03 0.03 0.02 0.02 0.03 0.03 0.03 0.04 0.04 0.04 0.04 0.03 0.04 0.06 0.05 0.06 0.06 0.05 0.04 0.04 0.05 0.06 0.06 0.05 0.04 0.04 0.04 0.05
0.00 0.00 0.00 0.00 0.00 0.00 0.00 0.00 0.00 0.01 0.02 0.02 0.02 0.02 0.02 0.03 0.02 0.03 0.04 0.04 0.05 0.05 0.04 0.05 0.06 0.06 0.06 0.05 0.04 0.03 0.03 0.04 0.06 0.06 0.06 0.05 0.04 0.05
0.00 0.00 0.00 0.00 0.00 0.00 0.00 0.00 0.01 0.01 0.01 0.01 0.01 0.02 0.02 0.02 0.02 0.03 0.04 0.05 0.05 0.05 0.06 0.06 0.07 0.07 0.06 0.05 0.05 0.03 0.04 0.04 0.04 0.06 0.07 0.07 0.06 0.06
0.00 0.00 0.00 0.00 0.01 0.01 0.01 0.01 0.01 0.01 0.01 0.01 0.01 0.01 0.01 0.01 0.02 0.03 0.03 0.03 0.03 0.03 0.04 0.04 0.05 0.06 0.05 0.05 0.04 0.04 0.04 0.05 0.05 0.06 0.07 0.06 0.06 0.07
0.00 0.00 0.00 0.00 0.01 0.01 0.01 0.01 0.01 0.00 0.00 0.00 0.00 0.01 0.01 0.01 0.01 0.02 0.02 0.02 0.02 0.02 0.02 0.02 0.03 0.03 0.03 0.02 0.02 0.03 0.04 0.04 0.04 0.05 0.06 0.05 0.03 0.03
0.00 0.00 0.00 0.00 0.00 0.00 0.00 0.00 0.00 0.00 0.00 0.00 0.00 0.01 0.01 0.01 0.01 0.01 0.01 0.02 0.02 0.02 0.01 0.02 0.02 0.02 0.02 0.02 0.02 0.03 0.03 0.04 0.04 0.04 0.05 0.05 0.03 0.02
0.00 0.00 0.00 0.00 0.00 0.00 0.00 0.00 0.00 0.00 0.00 0.00 0.00 0.00 0.00 0.00 0.01 0.01 0.01 0.01 0.01 0.01 0.01 0.01 0.02 0.02 0.03 0.03 0.02 0.01 0.01 0.02 0.03 0.04 0.04 0.04 0.03 0.02
0.00 0.00 0.00 0.00 0.00 0.00 0.00 0.00 0.00 0.00 0.00 0.00 0.00 0.00 0.00 0.00 0.00 0.00 0.00 0.00 0.00 0.01 0.01 0.02 0.02 0.02 0.02 0.02 0.01 0.01 0.01 0.02 0.02 0.03 0.03 0.03 0.03 0.03
0.00 0.00 0.00 0.00 0.00 0.00 0.00 0.00 0.00 0.00 0.00 0.00 0.00 0.00 0.00 0.00 0.00 0.00 0.00 0.00 0.00 0.00 0.00 0.01 0.01 0.01 0.01 0.01 0.01 0.01 0.01 0.01 0.02 0.02 0.02 0.02 0.03 0.03
0.00 0.00 0.00 0.00 0.00 0.00 0.00 0.00 0.00 0.00 0.00 0.00 0.00 0.00 0.00 0.00 0.00 0.00 0.00 0.00 0.00 0.00 0.00 0.00 0.00 0.00 0.00 0.01 0.01 0.01 0.01 0.01 0.01 0.01 0.01 0.02 0.02 0.02
MSLP
1013.48 1013.67 1013.87 1014.05 1014.17 1014.22 1014.15 1013.98 1013.72 1013.38 1013.01 1012.62 1012.26 1011.95 1011.70 1011.50 1011.36 1011.26 1011.21 1011.19 1011.20 1011.24 1011.32 1011.44 1011.59 1011.78 1011.99 1012.24 1012.51 1012.81 1013.14 1013.49 1013.88 1014.30 1014.74 1015.21 1015.68 1016.16
1013.27 1013.43 1013.62 1013.80 1013.93 1014.00 1013.98 1013.87 1013.67 1013.40 1013.09 1012.75 1012.42 1012.12 1011.85 1011.62 1011.43 1011.28 1011.17 1011.10 1011.07 1011.08 1011.12 1011.21 1011.34 1011.50 1011.70 1011.92 1012.18 1012.46 1012.77 1013.11 1013.49 1013.89 1014.32 1014.77 1015.23 1015.69
1012.99 1013.13 1013.29 1013.45 1013.59 1013.68 1013.70 1013.65 1013.53 1013.34 1013.11 1012.84 1012.56 1012.28 1012.02 1011.78 1011.56 1011.37 1011.22 1011.11 1011.03 1011.00 1011.00 1011.05 1011.15 1011.27 1011.44 1011.63 1011.85 1012.11 1012.40 1012.72 1013.07 1013.45 1013.86 1014.28 1014.72 1015.15
1012.69 1012.80 1012.93 1013.08 1013.21 1013.32 1013.38 1013.39 1013.34 1013.24 1013.09 1012.90 1012.68 1012.45 1012.21 1011.97 1011.75 1011.54 1011.35 1011.19 1011.07 1010.99 1010.95 1010.95 1010.99 1011.06 1011.18 1011.33 1011.51 1011.73 1011.98 1012.27 1012.60 1012.95 1013.33 1013.73 1014.13 1014.53
1012.38 1012.46 1012.57 1012.70 1012.83 1012.96 1013.06 1013.12 1013.14 1013.12 1013.05 1012.94 1012.79 1012.60 1012.40 1012.18 1011.95 1011.73 1011.52 1011.32 1011.15 1011.02 1010.92 1010.86 1010.83 1010.85 1010.90 1010.99 1011.11 1011.28 1011.50 1011.75 1012.05 1012.38 1012.73 1013.09 1013.46 1013.83
1012.05 1012.12 1012.21 1012.33 1012.46 1012.60 1012.73 1012.84 1012.92 1012.97 1012.97 1012.92 1012.84 1012.71 1012.54 1012.34 1012.13 1011.90 1011.66 1011.44 1011.23 1011.04 1010.88 1010.74 1010.64 1010.58 1010.56 1010.58 1010.65 1010.77 1010.94 1011.17 1011.43 1011.73 1012.06 1012.40 1012.75 1013.09
1011.69 1011.75 1011.84 1011.95 1012.09 1012.24 1012.39 1012.54 1012.66 1012.76 1012.82 1012.83 1012.79 1012.71 1012.57 1012.40 1012.20 1011.97 1011.73 1011.48 1011.23 1010.99 1010.77 1010.57 1010.39 1010.26 1010.16 1010.11 1010.12 1010.19 1010.33 1010.52 1010.77 1011.05 1011.36 1011.68 1012.01 1012.32
1011.28 1011.35 1011.44 1011.55 1011.69 1011.85 1012.02 1012.19 1012.35 1012.47 1012.57 1012.61 1012.61 1012.56 1012.46 1012.31 1012.13 1011.91 1011.66 1011.40 1011.12 1010.84 1010.57 1010.31 1010.06 1009.86 1009.69 1009.59 1009.54 1009.57 1009.68 1009.85 1010.08 1010.35 1010.66 1010.97 1011.28 1011.57
1010.81 1010.89 1010.98 1011.10 1011.25 1011.42 1011.60 1011.78 1011.95 1012.10 1012.21 1012.27 1012.29 1012.26 1012.18 1012.05 1011.88 1011.67 1011.43 1011.16 1010.87 1010.57 1010.26 1009.95 1009.66 1009.40 1009.18 1009.02 1008.94 1008.94 1009.03 1009.18 1009.41 1009.68 1009.98 1010.29 1010.58 1010.87
1010.29 1010.37 1010.47 1010.60 1010.76 1010.93 1011.12 1011.31 1011.48 1011.63 1011.75 1011.82 1011.85 1011.82 1011.75 1011.63 1011.48 1011.28 1011.05 1010.78 1010.49 1010.17 1009.84 1009.51 1009.18 1008.89 1008.64 1008.45 1008.34 1008.32 1008.40 1008.55 1008.77 1009.05 1009.35 1009.65 1009.94 1010.21
1009.74 1009.82 1009.93 1010.07 1010.23 1010.42 1010.62 1010.81 1010.99 1011.14 1011.24 1011.31 1011.33 1011.30 1011.23 1011.12 1010.96 1010.78 1010.55 1010.30 1010.01 1009.70 1009.36 1009.02 1008.68 1008.37 1008.10 1007.89 1007.77 1007.74 1007.81 1007.96 1008.18 1008.46 1008.76 1009.06 1009.35 1009.60
1009.21 1009.29 1009.41 1009.56 1009.74 1009.94 1010.15 1010.35 1010.52 1010.66 1010.76 1010.81 1010.82 1010.78 1010.69 1010.57 1010.42 1010.23 1010.02 1009.77 1009.49 1009.18 1008.85 1008.51 1008.17 1007.85 1007.58 1007.37 1007.24 1007.20 1007.26 1007.41 1007.64 1007.91 1008.21 1008.51 1008.79 1009.02
1008.76 1008.84 1008.96 1009.13 1009.33 1009.55 1009.77 1009.98 1010.16 1010.29 1010.38 1010.41 1010.39 1010.33 1010.22 1010.08 1009.92 1009.72 1009.51 1009.26 1008.99 1008.69 1008.37 1008.03 1007.70 1007.38 1007.11 1006.89 1006.76 1006.72 1006.77 1006.92 1007.13 1007.40 1007.69 1007.98 1008.24 1008.46
1008.45 1008.53 1008.66 1008.84 1009.07 1009.31 1009.55 1009.77 1009.95 1010.08 1010.15 1010.16 1010.11 1010.01 1009.88 1009.71 1009.52 1009.31 1009.08 1008.83 1008.56 1008.27 1007.95 1007.62 1007.29 1006.98 1006.71 1006.49 1006.35 1006.30 1006.34 1006.47 1006.67 1006.92 1007.20 1007.47 1007.71 1007.91
1008.30 1008.38 1008.53 1008.74 1008.98 1009.25 1009.51 1009.75 1009.93 1010.05 1010.10 1010.08 1010.00 1009.86 1009.69 1009.49 1009.26 1009.03 1008.78 1008.53 1008.25 1007.96 1007.64 1007.32 1006.99 1006.68 1006.40 1006.18 1006.03 1005.96 1005.98 1006.08 1006.26 1006.48 1006.73 1006.97 1007.19 1007.35
1008.31 1008.41 1008.58 1008.81 1009.08 1009.37 1009.65 1009.89 1010.08 1010.19 1010.22 1010.17 1010.05 1009.87 1009.66 1009.42 1009.16 1008.90 1008.64 1008.37 1008.08 1007.79 1007.48 1007.15 1006.83 1006.51 1006.22 1005.99 1005.81 1005.72 1005.70 1005.77 1005.91 1006.09 1006.30 1006.50 1006.68 1006.81
1008.46 1008.58 1008.77 1009.03 1009.32 1009.63 1009.93 1010.17 1010.35 1010.44 1010.45 1010.37 1010.21 1010.00 1009.75 1009.48 1009.20 1008.92 1008.64 1008.36 1008.07 1007.77 1007.47 1007.14 1006.82 1006.49 1006.19 1005.93 1005.73 1005.60 1005.54 1005.56 1005.64 1005.77 1005.92 1006.07 1006.20 1006.28
1008.68 1008.83 1009.05 1009.33 1009.64 1009.96 1010.26 1010.50 1010.66 1010.74 1010.72 1010.62 1010.44 1010.21 1009.94 1009.65 1009.35 1009.06 1008.78 1008.50 1008.22 1007.93 1007.62 1007.30 1006.97 1006.64 1006.32 1006.03 1005.79 1005.61 1005.49 1005.45 1005.46 1005.52 1005.60 1005.69 1005.75 1005.77
1008.91 1009.10 1009.34 1009.64 1009.97 1010.29 1010.58 1010.81 1010.96 1011.02 1010.98 1010.86 1010.67 1010.43 1010.15 1009.87 1009.58 1009.30 1009.03 1008.76 1008.50 1008.22 1007.92 1007.61 1007.27 1006.93 1006.58 1006.26 1005.97 1005.73 1005.55 1005.42 1005.36 1005.34 1005.34 1005.35 1005.33 1005.28
1009.10 1009.32 1009.60 1009.91 1010.23 1010.55 1010.83 1011.04 1011.18 1011.22 1011.18 1011.06 1010.87 1010.64 1010.38 1010.11 1009.85 1009.60 1009.36 1009.12 1008.88 1008.62 1008.34 1008.03 1007.69 1007.33 1006.95 1006.58 1006.24 1005.93 1005.67 1005.47 1005.31 1005.20 1005.12 1005.04 1004.94 1004.82
1009.22 1009.48 1009.77 1010.09 1010.41 1010.72 1010.98 1011.18 1011.30 1011.34 1011.30 1011.19 1011.03 1010.82 1010.60 1010.37 1010.15 1009.94 1009.74 1009.54 1009.32 1009.09 1008.82 1008.51 1008.16 1007.78 1007.37 1006.96 1006.55 1006.17 1005.83 1005.54 1005.30 1005.09 1004.92 1004.75 1004.58 1004.39
1009.26 1009.55 1009.86 1010.18 1010.50 1010.79 1011.04 1011.23 1011.35 1011.40 1011.37 1011.28 1011.15 1010.99 1010.81 1010.63 1010.46 1010.29 1010.13 1009.97 1009.78 1009.57 1009.31 1009.00 1008.63 1008.22 1007.78 1007.32 1006.85 1006.41 1005.99 1005.62 1005.29 1005.01 1004.75 1004.51 1004.27 1004.01
1009.24 1009.55 1009.88 1010.21 1010.52 1010.81 1011.05 1011.24 1011.37 1011.43 1011.42 1011.37 1011.27 1011.15 1011.02 1010.89 1010.76 1010.64 1010.51 1010.37 1010.20 1010.00 1009.74 1009.42 1009.04 1008.61 1008.13 1007.63 1007.11 1006.61 1006.13 1005.69 1005.30 1004.94 1004.62 1004.32 1004.02 1003.72
Thickness
5674 5674 5674 5676 5678 5680 5681 5682 5679 5678 5684 5694 5700 5707 5711 5713 5714 5716 5719 5720 5722 5724 5726 5727 5728 5729 5731 5732 5734 5734 5735 5735 5735 5735 5734 5734 5734 5733
5673 5672 5672 5673 5675 5677 5678 5680 5681 5679 5678 5687 5693 5700 5704 5707 5708 5710 5713 5715 5717 5719 5721 5723 5724 5725 5727 5728 5729 5730 5731 5732 5732 5732 5732 5732 5732 5731
5672 5672 5671 5672 5671 5673 5675 5676 5677 5678 5675 5681 5689 5694 5697 5699 5702 5704 5706 5709 5711 5714 5716 5717 5719 5721 5722 5724 5725 5726 5727 5728 5728 5729 5729 5729 5729 5729
5670 5669 5669 5670 5669 5669 5670 5671 5673 5675 5674 5674 5680 5685 5689 5693 5695 5697 5701 5704 5706 5708 5710 5712 5714 5715 5717 5718 5720 5721 5722 5723 5724 5724 5725 5725 5725 5725
5670 5667 5667 5666 5665 5666 5667 5668 5669 5672 5672 5671 5672 5677 5681 5685 5687 5690 5693 5696 5699 5702 5704 5706 5708 5709 5711 5713 5714 5716 5717 5718 5719 5720 5720 5721 5721 5721
5670 5668 5667 5665 5664 5663 5664 5664 5666 5666 5667 5666 5667 5670 5673 5677 5679 5679 5681 5686 5690 5694 5697 5699 5701 5703 5705 5707 5708 5709 5711 5712 5713 5714 5715 5716 5716 5717
5670 5669 5667 5666 5664 5662 5661 5660 5660 5660 5661 5661 5662 5663 5665 5667 5668 5672 5672 5676 5681 5686 5688 5691 5693 5695 5697 5699 5701 5703 5704 5706 5707 5708 5709 5710 5711 5711
5669 5668 5668 5665 5664 5662 5661 5660 5659 5657 5656 5656 5656 5657 5658 5661 5663 5665 5665 5666 5669 5677 5678 5680 5685 5686 5689 5692 5695 5697 5698 5699 5700 5701 5703 5703 5704 5705
5669 5668 5668 5667 5664 5661 5660 5660 5659 5658 5657 5655 5653 5654 5655 5657 5658 5658 5659 5660 5662 5668 5670 5671 5676 5678 5682 5685 5687 5689 5691 5692 5693 5694 5695 5697 5697 5698
5670 5669 5667 5665 5663 5660 5658 5657 5656 5657 5656 5655 5654 5653 5654 5654 5654 5654 5654 5656 5660 5663 5665 5663 5668 5671 5676 5678 5680 5681 5683 5684 5685 5687 5688 5689 5690 5690
5671 5670 5668 5664 5662 5660 5656 5654 5653 5653 5655 5654 5653 5652 5652 5652 5651 5649 5649 5649 5650 5654 5659 5658 5661 5663 5667 5670 5673 5674 5675 5676 5677 5679 5681 5682 5683 5683
5670 5669 5667 5663 5660 5657 5653 5650 5648 5648 5649 5649 5648 5648 5648 5649 5649 5647 5645 5643 5644 5646 5651 5652 5652 5653 5656 5663 5665 5667 5667 5668 5669 5671 5673 5674 5675 5674
5666 5664 5662 5660 5657 5654 5650 5647 5645 5644 5644 5643 5643 5643 5644 5644 5644 5644 5643 5641 5639 5640 5644 5645 5644 5645 5646 5650 5656 5659 5660 5661 5662 5664 5665 5667 5668 5667
5661 5660 5658 5656 5653 5650 5646 5644 5642 5641 5639 5638 5637 5636 5636 5637 5638 5638 5639 5638 5638 5638 5640 5640 5639 5639 5639 5641 5645 5650 5652 5654 5655 5657 5659 5661 5661 5661
5657 5655 5653 5651 5648 5645 5642 5640 5637 5635 5633 5632 5630 5630 5630 5631 5632 5632 5633 5633 5634 5635 5635 5635 5634 5634 5634 5634 5637 5639 5641 5645 5648 5650 5651 5652 5653 5653
5653 5650 5648 5645 5642 5639 5636 5633 5631 5629 5627 5625 5624 5624 5624 5624 5624 5624 5624 5625 5625 5626 5628 5628 5628 5628 5628 5629 5630 5631 5633 5634 5638 5640 5642 5644 5646 5647
5647 5645 5641 5638 5634 5631 5629 5627 5624 5622 5620 5618 5617 5616 5616 5616 5615 5616 5616 5616 5615 5615 5617 5619 5620 5621 5622 5622 5623 5624 5625 5626 5627 5629 5631 5634 5637 5639
5642 5638 5633 5630 5626 5623 5620 5618 5616 5613 5612 5610 5609 5608 5607 5607 5606 5607 5607 5606 5605 5606 5606 5608 5609 5611 5612 5614 5615 5615 5615 5616 5617 5619 5620 5622 5626 5630
5633 5629 5625 5621 5618 5614 5611 5609 5606 5604 5603 5601 5599 5598 5598 5597 5597 5596 5596 5595 5595 5595 5596 5597 5597 5596 5596 5598 5603 5603 5601 5604 5606 5608 5609 5610 5614 5619
5623 5620 5616 5612 5609 5605 5602 5599 5597 5595 5593 5591 5589 5588 5587 5587 5586 5585 5584 5584 5583 5584 5584 5584 5584 5583 5582 5584 5589 5592 5591 5591 5593 5595 5597 5600 5603 5607
5614 5610 5607 5604 5600 5597 5594 5591 5588 5585 5583 5581 5579 5577 5576 5575 5574 5573 5573 5573 5573 5572 5572 5572 5572 5573 5574 5575 5577 5580 5581 5581 5581 5581 5584 5585 5589 5594
5606 5602 5598 5595 5592 5588 5585 5582 5579 5576 5573 5571 5568 5566 5565 5564 5563 5562 5561 5560 5560 5560 5560 5561 5561 5561 5561 5561 5563 5566 5569 5571 5570 5571 5570 5571 5572 5577
5597 5593 5590 5586 5582 5579 5575 5572 5569 5565 5562 5559 5557 5554 5553 5551 5550 5550 5549 5548 5547 5547 5547 5547 5548 5547 5547 5547 5549 5551 5554 5556 5557 5559 5560 5560 5561 5564